Location: Unspecified
(0.0000°N, 0.0000°E)
Time: 20:57:22
(UTC+00:00)

S-56A Canister/Altair - Pass Details

Date: 22 April 2019
Orbit: 633 x 2499 km, 38.9° (Epoch: 24 May)

Event Time Altitude Azimuth Distance (km) Brightness Sun altitude
Rises 04:34:27 0° 198° (SSW) 4,612 11.2 -20.6°
Reaches altitude 10° 04:38:28 10° 182° (S) 3,956 11.0 -19.6°
Maximum altitude 04:45:53 20° 138° (SE) 3,697 11.3 -17.8°
Drops below altitude 10° 04:54:50 10° 97° (E) 4,920 12.8 -15.6°
Sets 05:00:38 0° 82° (E) 6,101 14.1 -14.2°
